TimeAKDT,TemperatureF,Dew PointF,Humidity,Sea Level PressureIn,VisibilityMPH,Wind Direction,Wind SpeedMPH,Gust SpeedMPH,PrecipitationIn,Events,Conditions,WindDirDegrees,DateUTC
12:16 AM,24.8,12.2,59,29.89,10.0,South,3.5,-,N/A,,Clear,180,2012-10-31 08:16:00
12:36 AM,26.6,12.2,55,29.88,10.0,SSE,4.6,-,N/A,,Clear,160,2012-10-31 08:36:00
12:56 AM,26.6,14.0,59,29.88,10.0,South,3.5,-,N/A,,Clear,170,2012-10-31 08:56:00
1:16 AM,26.6,14.0,59,29.87,10.0,South,3.5,-,N/A,,Clear,170,2012-10-31 09:16:00
1:36 AM,26.6,14.0,59,29.86,10.0,SSE,4.6,-,N/A,,Clear,150,2012-10-31 09:36:00
1:56 AM,24.8,12.2,59,29.85,10.0,SSE,4.6,-,N/A,,Clear,160,2012-10-31 09:56:00
2:16 AM,24.8,14.0,64,29.85,10.0,SSE,4.6,-,N/A,,Clear,160,2012-10-31 10:16:00
2:36 AM,24.8,14.0,64,29.84,10.0,SSE,4.6,-,N/A,,Clear,160,2012-10-31 10:36:00
2:56 AM,24.8,12.2,59,29.83,10.0,South,3.5,-,N/A,,Clear,170,2012-10-31 10:56:00
3:16 AM,24.8,14.0,64,29.83,10.0,SSE,4.6,-,N/A,,Clear,160,2012-10-31 11:16:00
3:36 AM,24.8,14.0,64,29.82,10.0,SSE,4.6,-,N/A,,Clear,150,2012-10-31 11:36:00
3:56 AM,24.8,14.0,64,29.82,10.0,SSE,5.8,-,N/A,,Clear,150,2012-10-31 11:56:00
4:16 AM,24.8,15.8,69,29.82,10.0,SSE,4.6,-,N/A,,Clear,150,2012-10-31 12:16:00
4:36 AM,24.8,15.8,69,29.82,10.0,SSE,5.8,-,N/A,,Clear,160,2012-10-31 12:36:00
4:56 AM,24.8,15.8,69,29.82,10.0,SSE,5.8,-,N/A,,Clear,160,2012-10-31 12:56:00
5:16 AM,24.8,15.8,69,29.82,10.0,SSE,6.9,-,N/A,,Clear,160,2012-10-31 13:16:00
5:36 AM,24.8,14.0,64,29.82,10.0,SSE,5.8,-,N/A,,Clear,160,2012-10-31 13:36:00
5:56 AM,24.8,14.0,64,29.82,10.0,SSE,5.8,-,N/A,,Clear,150,2012-10-31 13:56:00
6:16 AM,24.8,15.8,69,29.82,10.0,SSE,5.8,-,N/A,,Clear,150,2012-10-31 14:16:00
6:36 AM,24.8,15.8,69,29.82,10.0,SSE,6.9,-,N/A,,Clear,150,2012-10-31 14:36:00
6:56 AM,24.8,15.8,69,29.82,10.0,SE,6.9,-,N/A,,Clear,140,2012-10-31 14:56:00
7:16 AM,24.8,14.0,64,29.82,10.0,SSE,6.9,-,N/A,,Clear,150,2012-10-31 15:16:00
7:36 AM,24.8,15.8,69,29.81,10.0,SE,4.6,-,N/A,,Clear,140,2012-10-31 15:36:00
7:56 AM,24.8,15.8,69,29.81,10.0,SSE,4.6,-,N/A,,Clear,150,2012-10-31 15:56:00
8:16 AM,24.8,14.0,64,29.82,10.0,SSE,4.6,-,N/A,,Clear,160,2012-10-31 16:16:00
8:36 AM,24.8,15.8,69,29.81,10.0,SSE,3.5,-,N/A,,Clear,160,2012-10-31 16:36:00
8:56 AM,26.6,15.8,64,29.81,10.0,SSE,3.5,-,N/A,,Clear,150,2012-10-31 16:56:00
9:16 AM,26.6,17.6,69,29.80,10.0,Calm,Calm,-,N/A,,Clear,0,2012-10-31 17:16:00
9:36 AM,26.6,17.6,69,29.80,10.0,Calm,Calm,-,N/A,,Clear,0,2012-10-31 17:36:00
9:56 AM,28.4,17.6,64,29.80,10.0,Calm,Calm,-,N/A,,Clear,0,2012-10-31 17:56:00
10:16 AM,28.4,17.6,64,29.80,10.0,Calm,Calm,-,N/A,,Clear,0,2012-10-31 18:16:00
10:36 AM,28.4,17.6,64,29.80,10.0,WNW,3.5,-,N/A,,Clear,300,2012-10-31 18:36:00
10:56 AM,30.2,17.6,60,29.80,10.0,Calm,Calm,-,N/A,,Clear,0,2012-10-31 18:56:00
11:16 AM,30.2,17.6,60,29.79,10.0,Calm,Calm,-,N/A,,Clear,0,2012-10-31 19:16:00
11:36 AM,30.2,19.4,64,29.79,10.0,Calm,Calm,-,N/A,,Clear,0,2012-10-31 19:36:00
11:56 AM,30.2,17.6,60,29.79,10.0,NW,5.8,-,N/A,,Clear,320,2012-10-31 19:56:00
12:16 PM,30.2,17.6,60,29.78,10.0,Calm,Calm,-,N/A,,Clear,0,2012-10-31 20:16:00
12:36 PM,32.0,17.6,55,29.78,10.0,Calm,Calm,-,N/A,,Clear,0,2012-10-31 20:36:00
12:56 PM,32.0,17.6,55,29.78,10.0,NNW,3.5,-,N/A,,Clear,330,2012-10-31 20:56:00
1:16 PM,32.0,17.6,55,29.78,10.0,Calm,Calm,-,N/A,,Clear,0,2012-10-31 21:16:00
1:36 PM,33.8,17.6,52,29.77,10.0,Calm,Calm,-,N/A,,Clear,0,2012-10-31 21:36:00
1:56 PM,33.8,17.6,52,29.77,10.0,Calm,Calm,-,N/A,,Clear,0,2012-10-31 21:56:00
2:16 PM,33.8,17.6,52,29.77,10.0,Calm,Calm,-,N/A,,Clear,0,2012-10-31 22:16:00
2:36 PM,33.8,17.6,52,29.77,10.0,WNW,4.6,-,N/A,,Clear,290,2012-10-31 22:36:00
2:56 PM,33.8,17.6,52,29.76,10.0,NW,3.5,-,N/A,,Mostly Cloudy,320,2012-10-31 22:56:00
3:16 PM,33.8,17.6,52,29.76,7.0,Calm,Calm,-,N/A,,Mostly Cloudy,0,2012-10-31 23:16:00
3:36 PM,35.6,15.8,44,29.76,7.0,Calm,Calm,-,N/A,,Mostly Cloudy,0,2012-10-31 23:36:00
3:56 PM,35.6,17.6,48,29.76,10.0,Calm,Calm,-,N/A,,Mostly Cloudy,0,2012-10-31 23:56:00
4:16 PM,33.8,17.6,52,29.75,10.0,Calm,Calm,-,N/A,,Mostly Cloudy,0,2012-11-01 00:16:00
4:36 PM,33.8,17.6,52,29.76,10.0,NNW,5.8,-,N/A,,Mostly Cloudy,330,2012-11-01 00:36:00
4:56 PM,33.8,17.6,52,29.75,10.0,NNW,3.5,-,N/A,,Mostly Cloudy,340,2012-11-01 00:56:00
5:16 PM,30.2,15.8,55,29.75,10.0,Calm,Calm,-,N/A,,Mostly Cloudy,0,2012-11-01 01:16:00
5:36 PM,30.2,15.8,55,29.76,10.0,NNW,3.5,-,N/A,,Mostly Cloudy,330,2012-11-01 01:36:00
5:56 PM,33.8,17.6,52,29.76,10.0,Calm,Calm,-,N/A,,Scattered Clouds,0,2012-11-01 01:56:00
6:16 PM,32.0,17.6,55,29.75,10.0,Calm,Calm,-,N/A,,Scattered Clouds,0,2012-11-01 02:16:00
6:36 PM,32.0,17.6,55,29.75,10.0,Calm,Calm,-,N/A,,Scattered Clouds,0,2012-11-01 02:36:00
6:56 PM,28.4,15.8,59,29.75,10.0,Calm,Calm,-,N/A,,Clear,0,2012-11-01 02:56:00
7:16 PM,30.2,17.6,60,29.76,10.0,Calm,Calm,-,N/A,,Clear,0,2012-11-01 03:16:00
7:36 PM,30.2,15.8,55,29.76,10.0,WNW,3.5,-,N/A,,Clear,290,2012-11-01 03:36:00
7:56 PM,28.4,15.8,59,29.76,10.0,WNW,4.6,-,N/A,,Clear,290,2012-11-01 03:56:00
8:16 PM,30.2,15.8,55,29.77,10.0,Calm,Calm,-,N/A,,Clear,0,2012-11-01 04:16:00
8:36 PM,30.2,15.8,55,29.78,10.0,WNW,4.6,-,N/A,,Clear,300,2012-11-01 04:36:00
8:56 PM,30.2,15.8,55,29.78,10.0,Calm,Calm,-,N/A,,Clear,0,2012-11-01 04:56:00
9:16 PM,28.4,14.0,55,29.77,10.0,Calm,Calm,-,N/A,,Clear,0,2012-11-01 05:16:00
9:36 PM,28.4,15.8,59,29.77,10.0,NW,3.5,-,N/A,,Clear,320,2012-11-01 05:36:00
9:56 PM,28.4,15.8,59,29.78,10.0,Calm,Calm,-,N/A,,Clear,0,2012-11-01 05:56:00
10:16 PM,28.4,15.8,59,29.78,10.0,Calm,Calm,-,N/A,,Clear,0,2012-11-01 06:16:00
10:36 PM,28.4,15.8,59,29.78,10.0,Calm,Calm,-,N/A,,Clear,0,2012-11-01 06:36:00
10:56 PM,30.2,15.8,55,29.79,10.0,North,3.5,-,N/A,,Clear,350,2012-11-01 06:56:00
11:16 PM,28.4,15.8,59,29.79,10.0,Calm,Calm,-,N/A,,Clear,0,2012-11-01 07:16:00
11:36 PM,28.4,15.8,59,29.79,10.0,Calm,Calm,-,N/A,,Clear,0,2012-11-01 07:36:00
11:56 PM,30.2,17.6,60,29.79,10.0,Calm,Calm,-,N/A,,Clear,0,2012-11-01 07:56:00